Probability
0 0 0 0 0 0 0 0 0 0 0 0 0 0 0 0 0 0 0 0 0 0 0 0 0 0 0 0 0 0 0 0 0 0 0 0 0 0 0 0 0 0 0 0
0 0 0 0 0 0 0 0 0 0 0 0 0 0 0 0 0 0 0 0 0 0 0 0 0 0 0 0 0 0 0 0 0 0 0 0 0 0 0 0 0 0 0 0
0 0 0 0 0 0 0 0 0 0 0 0 0 0 0 0 0 0 0 0 0 0 0 0 0 0 0 0 0 0 0 0 0 0 0 0 0 0 0 0 0 0 0 0
0 0 0 0 0 0 0 0 0 0 0 0 0 0 0 0 0 0 0 0 0 0 0 0 0 0 0 0 0 0 0 0 0 0 0 0 0 0 0 0 0 0 0 0
0 0 0 0 0 0 0 0 0 0 0 0 0 0 0 0 0 0 0 0 0 0 0 0 0 0 0 0 0 0 0 0 0 0 0 0 0 0 0 0 0 0 0 0
0 0 0 0 0 0 0 0 0 0 0 0 0 0 0 0 0 0 0 0 0 0 0 0 0 0 0 0 0 0 0 0 0 0 0 0 0 0 0 0 0 0 0 0
0 0 0 0 0 0 0 0 0 0 0 0 0 0 0 0 0 0 0 0 0 0 0 0 0 0 0 0 0 0 0 0 0 0 0 0 0 0 0 0 0 0 0 0
0 0 0 0 0 0 0 0 0 0 0 0 0 0 0 0 0 0 0 0 0 0 0 0 0 0 0 0 0 0 0 0 0 0 0 0 0 0 0 0 0 0 0 0
0 0 0 0 0 0 0 0 0 0 0 0 0 0 0 0 0 0 0 0 0 0 0 0 0 0 0 0 0 0 0 0 0 0 0 0 0 0 0 0 0 0 0 0
0 0 0 0 0 0 0 0 0 0 0 0 0 0 0 0 0 0 0 0 0 0 0 0 0 0 0 0 0 0 0 0 0 0 0 0 0 0 0 0 0 0 0 0
0 0 0 0 0 0 0 0 0 0 0 0 0 0 0 0 0 0 0 0 0 0 0 0 0 0 0 0 0 0 0 0 0 0 0 0 0 0 0 0 0 0 0 0
0 0 0 0 0 0 0 0 0 0 0 0 0 0 0 0 0 0 0 0 0 0 0 0 0 0 0 0 0 0 0 0 0 0 0 0 0 0 0 0 0 0 0 0
0 0 0 0 0 0 0 0 0 0 0 0 0 0 0 0 0 0 0 0 0 0 0 0 0 0 0 0 0 0 0 0 0 0 0 0 0 0 0 0 0 0 0 0
0 0 0 0 0 0 0 0 0 0 0 0 0 0 0 0 0 0 0 0 0 0 0 0 0 0 0 0 0 0 0 0 0 0 0 0 0 0 0 0 0 0 0 0
0 0 0 0 0 0 0 0 0 0 0 0 0 0 0 0 0 0 0 0 0 0 0 0 0 0 0 0 0 0 0 0 0 0 0 0 0 0 0 0 0 0 0 0
0 0 0 0 0 0 0 0 0 0 0 0 0 0 0 0 0 0 0 0 0 0 0 0 0 0 0 0 0 0 0 0 0 0 0 0 0 0 0 0 0 0 0 0
0 0 0 0 0 0 0 0 0 0 0 0 0 0 0 0 0 0 0 0 0 0 0 0 0 0 0 0 0 0 0 0 0 0 0 0 0 0 0 0 0 0 0 0
0 0 0 0 0 0 0 0 0 0 0 0 0 0 0 0 0 0 0 0 0 0 0 0 0 0 0 0 0 0 0 0 0 0 0 0 0 0 0 0 0 0 0 0
0 0 0 0 0 0 0 0 0 0 0 0 0 0 0 0 0 0 0 0 0 0 0 0 0 0 0 0 0 0 0 0 0 0 0 0 0 0 0 0 0 0 0 0
0 0 0 0 0 0 0 0 0 0 0 0 0 0 0 0 0 0 0 0 0 0 0 0 0 0 0 0 0 0 0 0 0 0 0 0 0 0 0 0 0 0 0 0
0 0 0 0 0 0 0 0 0 0 0 0 0 0 0 0 0 0 0 0 0 0 0 0 0 0 0 0 0 0 0 0 0 0 0 0 0 0 0 0 0 0 0 0
0 0 0 0 0 0 0 0 0 0 0 0 0 0 0 0 0 0 0 0 0 0 0 0 0 0 0 0 0 0 0 0 0 0 0 0 0 0 0 0 0 0 0 0
0 0 0 0 0 0 0 0 0 0 0 0 0 0 0 0 0 0 0 0 0 0 0 0 0 0 0 0 0 0 0 0 0 0 0 0 0 0 0 0 0 0 0 0
0 0 0 0 0 0 0 0 0 0 0 0 0 0 0 0 0 0 0 0 0 0 0 0 0 0 0 0 0 0 0 0 0 0 0 0 0 0 0 0 0 0 0 0
0 0 0 0 0 0 0 0 0 0 0 0 0 0 0 0 0 0 0 0 0 0 0 0 0 0 0 0 0 0 0 0 0 0 0 0 0 0 0 0 0 0 0 0
0 0 0 0 0 0 0 0 0 0 0 0 0 0 0 0 0 0 0 0 0 0 0 0 0 0 0 0 0 0 0 0 0 0 0 0 0 0 0 0 0 0 0 0
0 0 0 0 0 0 0 0 0 0 0 0 0 0 0 0 0 0 0 0 0 0 0 0 0 0 0 0 0 0 0 0 0 0 0 0 0 0 0 0 0 0 0 0
Wind_Speed
7 6 4 6 7 7 9 8 10 11 8 7 10 11 10 8 7 5 4 1 1 3 4 5 6 7 7 8 8 9 9 9 10 10 10 11 11 11 11 12 14 14 15 17
5 3 4 6 8 7 8 7 10 11 14 2 6 7 8 7 7 5 4 1 2 3 5 6 6 7 7 8 8 8 8 9 10 11 11 11 10 10 12 12 13 14 15 17
6 7 7 8 6 8 7 9 9 10 8 7 6 9 10 8 7 6 4 2 2 3 4 5 5 6 7 8 8 8 8 9 10 10 11 11 11 11 11 11 11 13 14 15
3 7 5 7 1 5 7 9 9 8 5 10 6 6 5 6 7 6 5 3 0 2 3 4 5 5 6 7 7 8 8 9 9 9 10 10 10 10 9 8 9 9 11 14
1 3 12 10 4 5 5 10 7 8 6 7 10 6 1 4 6 6 5 4 2 1 2 3 5 5 6 7 7 7 8 9 9 9 9 10 10 9 7 7 7 8 10 12
3 2 8 8 2 2 3 9 6 9 11 11 11 4 6 9 7 6 5 4 2 0 1 3 4 5 6 7 7 8 9 9 9 9 9 9 9 8 6 6 8 10 10 10
5 6 14 7 5 5 3 9 4 9 11 14 11 6 7 11 7 6 5 4 3 1 1 3 4 4 5 6 7 8 8 8 8 9 8 8 8 7 7 8 8 8 9 9
5 5 14 6 9 11 12 2 5 8 8 9 7 9 11 10 8 7 6 4 3 2 2 3 4 4 5 6 7 7 7 7 8 8 8 9 7 7 6 7 6 6 6 7
13 14 7 11 12 8 5 7 7 8 7 10 10 9 10 9 8 7 6 4 3 2 2 3 4 3 4 6 7 7 7 7 7 7 6 7 6 6 6 6 4 5 5 6
8 15 9 10 9 5 7 7 7 7 10 11 11 10 10 10 8 7 6 4 3 2 2 2 4 4 4 6 6 6 7 7 7 6 6 6 6 6 5 5 5 5 6 6
9 12 8 8 10 9 7 7 8 7 8 11 13 11 10 9 9 7 6 4 4 3 1 2 3 4 5 5 6 6 6 6 7 7 6 6 6 5 7 4 8 7 4 5
13 12 9 8 7 12 11 10 12 11 9 8 10 12 11 9 8 7 6 5 4 3 1 1 2 4 5 5 5 5 6 6 5 5 5 6 6 7 12 13 16 15 14 12
9 4 6 3 5 11 11 12 12 12 13 10 8 10 12 8 8 7 6 6 5 4 2 1 2 3 5 5 5 5 5 6 5 5 5 6 7 7 9 11 15 15 16 16
7 5 4 6 7 9 9 10 9 8 7 10 10 10 10 7 7 7 7 6 5 4 3 2 2 4 5 5 6 6 6 7 7 5 5 6 6 6 7 8 10 9 11 14
10 10 7 5 7 9 9 10 10 9 9 9 8 10 11 10 9 8 6 5 4 4 3 2 2 4 5 5 5 5 5 5 5 4 5 5 6 6 7 8 8 8 8 9
6 6 7 8 11 12 11 12 13 14 12 11 10 11 10 9 8 7 6 6 5 5 4 4 4 4 4 5 5 4 4 10 9 5 5 6 5 6 7 8 8 8 9 9
10 10 10 10 13 13 15 15 15 16 14 14 13 11 9 8 7 7 6 6 5 5 4 5 4 4 4 4 5 4 4 6 10 6 5 5 5 5 6 7 8 9 9 12
16 13 15 14 17 17 15 12 12 15 14 14 12 12 12 12 12 10 7 6 4 4 5 5 5 4 4 4 4 3 3 3 4 4 5 5 5 5 5 6 8 9 8 10
13 12 13 12 15 16 16 15 15 13 12 14 15 15 13 11 9 7 7 7 6 5 5 5 6 3 3 5 3 1 2 3 4 4 4 7 7 5 5 6 8 8 9 9
12 11 12 11 12 13 14 13 13 13 13 14 14 12 11 10 8 8 8 7 6 5 5 5 5 4 4 5 2 1 2 3 3 4 5 5 5 6 6 7 8 9 9 9
13 12 13 13 12 11 14 15 16 16 15 15 16 15 13 11 9 9 7 6 6 7 6 7 4 4 4 3 1 1 1 2 3 3 4 5 6 6 7 8 9 9 9 10
13 14 14 14 14 13 12 13 14 15 15 15 13 11 11 11 11 8 7 5 5 11 7 4 4 6 6 3 2 1 0 1 2 3 3 4 5 6 7 8 8 9 9 9
11 13 14 15 15 13 12 12 14 15 16 17 17 16 15 12 11 10 8 7 6 11 7 5 7 10 7 4 3 2 1 1 2 2 3 3 4 5 6 7 7 8 8 9
13 13 13 12 13 13 15 14 13 11 12 12 13 13 13 10 8 7 3 11 16 14 7 8 12 11 7 4 3 3 2 2 2 2 2 3 3 4 5 6 7 8 8 10
13 13 14 16 16 13 13 13 11 9 10 8 9 10 9 8 8 9 7 8 14 13 6 9 13 11 6 4 4 3 3 3 3 1 2 3 3 4 5 5 6 8 8 9
13 13 13 12 10 10 11 12 11 10 11 10 10 9 9 6 6 7 8 8 10 12 8 5 5 7 5 5 4 4 4 3 2 1 2 3 3 4 4 5 8 7 8 9
9 9 8 8 8 10 11 12 12 13 13 13 12 11 11 9 9 8 9 9 8 7 6 6 5 5 5 5 5 4 4 3 3 3 3 3 3 3 4 6 6 7 8 9
Wind_Direction
261 273 268 249 235 203 196 203 219 249 250 242 202 180 171 166 164 165 172 168 18 356 346 345 344 339 335 330 331 333 332 334 333 330 327 327 327 328 331 336 338 333 332 332
293 317 308 269 251 222 222 221 238 262 271 239 127 125 148 165 169 174 180 155 30 3 352 346 338 333 331 330 330 330 331 332 331 334 334 333 332 337 340 340 338 337 338 337
290 316 340 296 247 193 215 217 208 231 237 147 153 170 174 175 177 178 169 132 44 355 336 327 325 326 329 327 325 330 330 331 334 334 335 335 339 342 341 338 338 340 340 345
312 353 290 251 187 193 224 247 221 232 192 174 157 139 139 158 170 173 159 141 77 327 320 317 322 328 327 325 328 330 332 333 335 335 334 335 339 340 335 333 338 337 339 347
98 299 281 292 235 203 221 276 223 202 160 126 114 98 180 190 170 168 156 152 170 239 284 317 331 333 334 332 331 334 339 338 336 336 337 339 342 339 333 331 335 337 344 347
140 225 256 256 164 129 74 280 232 168 158 153 148 176 219 176 161 153 146 141 150 192 335 346 337 340 344 336 336 341 340 336 335 339 338 338 340 335 333 332 343 345 347 346
185 235 265 252 152 131 198 259 178 162 162 165 185 190 149 145 149 151 146 144 140 108 28 345 336 351 349 337 335 331 331 333 338 339 335 341 337 332 334 340 340 337 339 341
165 216 259 192 147 190 217 157 152 156 156 153 141 122 135 145 149 151 148 150 149 113 33 350 351 0 347 334 320 322 328 334 334 334 338 349 331 329 332 333 330 330 334 340
194 221 240 176 200 211 160 168 171 159 150 137 139 150 153 154 156 157 159 165 161 126 54 1 353 358 339 318 317 324 329 330 328 330 330 333 326 327 332 334 328 336 340 341
247 262 249 222 234 211 186 180 166 151 148 151 151 156 157 159 161 161 164 168 162 128 68 1 340 341 322 312 319 324 327 324 326 329 329 327 332 339 333 331 334 339 337 332
254 270 288 256 222 198 173 148 138 137 149 154 148 155 162 162 165 166 167 168 159 142 116 326 326 328 322 317 321 324 321 321 325 332 324 323 331 330 336 320 344 347 321 317
232 227 207 238 211 171 161 165 158 146 143 150 156 159 159 163 164 163 166 166 162 158 171 291 317 319 315 314 315 319 325 323 316 319 327 329 323 326 340 348 348 349 345 343
225 207 196 243 174 171 170 165 162 158 155 157 156 157 158 158 165 163 166 172 176 178 192 249 301 309 308 309 311 315 315 313 309 326 325 327 329 330 329 334 341 345 344 340
214 157 207 195 185 171 155 148 141 131 139 150 151 155 155 149 157 169 178 182 182 185 199 208 276 295 297 303 309 315 315 317 325 311 313 317 320 323 325 328 330 329 334 334
215 199 203 162 138 137 136 136 139 145 145 148 152 158 161 163 174 181 180 180 182 188 190 207 262 283 293 300 310 313 316 310 306 307 313 315 320 325 329 330 329 326 325 327
176 158 146 150 160 159 155 161 166 169 165 164 168 173 173 169 167 168 176 182 182 194 201 215 247 267 288 298 309 309 309 328 336 327 321 322 323 330 335 335 334 334 335 330
159 182 180 182 181 181 183 182 178 172 170 174 177 168 158 155 163 183 193 194 194 203 208 215 233 263 285 294 299 299 305 318 337 334 317 314 320 329 332 334 336 335 335 338
204 193 181 182 184 185 188 182 173 171 175 176 160 161 170 178 188 192 186 177 187 216 228 218 223 251 270 284 285 290 305 307 310 312 314 320 336 332 329 332 333 331 332 338
204 191 183 180 178 179 180 180 177 173 164 159 166 178 185 188 184 172 165 174 191 212 220 203 225 239 269 283 310 281 314 315 318 321 318 335 343 328 331 334 334 330 331 340
195 182 176 173 168 170 175 172 166 164 165 165 168 172 181 187 177 169 173 195 207 200 184 195 214 228 250 273 297 231 314 320 325 327 330 332 330 332 336 339 337 334 338 341
184 175 171 170 170 170 169 165 165 168 168 170 175 181 185 182 176 171 177 208 222 199 198 211 199 206 239 245 200 167 320 324 327 326 330 332 332 335 338 341 339 338 341 341
177 175 173 169 167 169 168 167 168 167 167 175 179 174 171 175 179 186 203 204 187 182 182 192 192 219 231 198 157 169 282 318 318 315 322 328 331 333 335 336 335 336 337 336
172 172 170 170 169 163 159 166 169 170 174 178 179 180 183 183 181 185 202 203 186 193 182 185 202 216 212 159 165 177 210 285 304 309 317 320 321 323 325 328 328 329 329 332
168 166 164 155 149 155 169 175 173 175 178 180 183 181 177 175 187 200 192 178 184 192 188 196 204 208 191 163 176 188 210 246 272 287 305 310 310 314 318 320 323 324 326 329
162 157 155 159 169 177 173 163 160 162 167 176 179 180 183 182 181 182 178 176 183 182 179 199 203 200 176 175 187 196 212 233 241 244 286 302 308 314 315 318 322 321 321 324
167 171 174 178 172 163 161 164 171 175 177 180 184 185 185 179 165 162 172 178 188 185 177 185 197 191 172 185 195 201 210 233 267 275 273 286 297 305 309 315 316 314 316 319
149 154 153 157 164 165 168 173 176 179 182 183 181 180 180 179 177 176 176 178 185 184 177 180 183 181 183 190 198 204 208 215 224 231 250 268 283 292 300 305 306 307 310 314